Theta_e
345 346 349 355 358 359 358 360 361 363 365 355 354 345 346 356 355 353 355 358 355 350 349 349 349 349 352 356 358 357 356 359 359 354 351 355 354 353 354 354 355 353 353 351 351 350 349 350 350 351 350 351 351 350 351 351 349 350 351 350 352 352 350 348 346 345 343 343 343 343 344 347 348 347 346 345 346 348 349 348 349 349 349 348 346 345 344 344 344 345 346 348 349 348 348 349 350
347 349 352 356 358 359 359 362 360 355 357 348 345 345 348 351 353 354 354 356 354 348 350 348 348 349 349 353 355 357 357 355 356 355 353 354 354 354 354 355 354 353 353 352 352 351 350 351 350 351 351 352 352 353 353 351 351 351 350 351 352 351 350 347 345 344 344 344 343 344 345 348 349 347 346 346 346 347 349 348 347 346 345 344 343 342 342 344 344 344 346 348 349 349 348 347 348
350 352 353 357 358 358 360 363 355 345 349 345 339 347 355 353 353 353 350 350 349 347 350 349 350 350 350 355 355 358 357 354 351 352 353 354 355 355 354 355 355 353 354 353 353 353 352 353 352 352 353 353 354 354 353 351 351 350 350 351 351 350 348 346 345 344 345 344 344 345 347 349 349 348 346 346 346 348 348 346 345 343 342 343 343 342 343 345 344 342 344 345 346 347 347 346 347
353 355 356 359 359 359 363 363 358 344 343 348 343 347 356 353 350 349 348 348 348 348 351 351 351 350 352 356 355 355 354 351 351 353 354 355 356 355 356 355 355 354 354 354 353 353 352 353 353 353 354 353 353 354 353 353 352 351 351 351 351 350 346 345 345 344 345 344 343 345 348 349 350 348 345 344 344 347 348 346 344 342 342 342 344 344 344 344 343 341 343 344 345 346 345 345 346
355 358 358 359 361 362 364 360 360 344 336 353 350 347 352 349 349 348 347 348 347 349 350 352 353 351 351 353 352 353 351 350 352 353 355 356 356 356 356 355 354 354 354 354 353 353 351 351 353 353 353 353 353 353 353 354 353 352 352 351 352 350 346 345 344 343 343 342 342 344 348 349 350 347 343 342 343 346 347 345 343 342 342 342 342 343 343 343 342 341 344 345 344 344 343 343 344
357 360 357 356 361 359 357 351 348 337 336 362 355 348 350 346 349 348 347 348 345 349 349 352 354 353 353 352 350 352 352 352 353 354 356 355 356 356 356 355 354 354 353 354 353 352 351 352 353 352 354 353 353 353 354 354 353 353 352 352 352 351 348 346 344 342 341 341 342 346 348 349 347 344 342 341 343 348 346 343 342 342 342 341 339 340 343 344 343 342 345 345 344 344 343 344 344
358 362 360 356 359 357 355 347 339 332 337 355 352 348 349 346 348 346 347 346 346 349 348 351 352 353 354 352 353 352 351 354 353 353 355 354 355 356 355 355 354 354 353 353 354 353 352 352 352 352 353 353 352 353 354 353 353 353 352 352 352 351 348 346 344 341 341 342 343 347 348 347 345 342 342 342 344 349 347 343 343 342 341 340 338 340 342 343 343 343 344 343 342 344 343 343 345
359 362 360 360 363 359 355 347 335 333 341 346 349 350 347 347 347 345 348 345 348 348 349 351 349 355 355 354 356 356 353 354 353 353 355 354 355 355 355 355 355 355 354 354 355 353 351 351 351 351 352 352 352 352 352 352 352 351 351 351 350 349 347 346 344 343 343 342 344 347 347 346 344 343 342 342 344 347 346 343 342 341 339 338 340 341 342 342 343 342 343 342 344 347 345 342 345
357 357 356 357 359 352 345 339 332 336 342 343 345 347 346 347 345 346 347 346 349 349 351 351 351 357 356 355 356 355 354 355 354 355 355 355 355 355 355 355 355 356 354 355 353 350 350 350 350 350 350 350 351 352 352 352 351 351 351 350 348 347 346 347 345 345 345 344 346 347 346 345 344 343 341 342 344 345 345 342 341 340 338 338 341 341 341 341 342 342 342 342 345 347 347 343 343
357 356 357 356 354 344 333 326 329 338 340 342 342 345 345 346 346 346 346 347 350 351 352 352 353 355 355 356 355 354 354 354 354 355 356 355 356 355 356 356 356 357 355 355 352 347 348 349 349 350 350 350 351 352 352 351 351 351 351 350 348 347 347 347 346 346 347 347 347 346 346 345 343 342 340 342 344 346 345 342 340 338 338 338 339 340 341 341 341 341 341 343 344 345 345 344 342
358 357 358 354 345 332 325 321 327 337 340 342 341 343 344 345 347 346 346 348 349 351 352 352 354 355 356 357 355 354 353 352 353 355 355 355 355 355 356 356 356 356 356 355 351 346 345 349 351 350 350 350 351 351 351 351 352 352 351 351 349 347 347 346 346 346 348 347 347 347 345 343 341 341 341 342 344 347 344 341 340 338 338 337 337 340 341 341 341 341 341 342 343 343 343 342 343
360 359 358 353 342 329 324 324 327 336 339 340 342 343 344 345 346 346 348 348 349 351 351 352 354 355 357 357 355 354 354 353 354 355 355 355 355 355 356 356 356 356 355 354 353 347 345 351 353 351 350 350 351 351 351 352 352 352 352 351 350 348 347 346 346 346 347 346 346 345 344 342 341 341 341 341 342 345 343 340 339 337 338 337 337 341 342 342 341 340 340 340 340 341 341 340 342
358 360 357 352 349 337 329 327 329 337 337 338 340 340 343 344 346 347 347 346 349 352 351 351 351 354 356 356 354 353 354 354 355 356 355 355 355 355 356 356 356 356 355 354 354 352 350 352 353 352 351 351 352 352 352 352 352 352 352 351 350 348 347 346 346 345 345 345 344 343 343 343 342 341 341 341 341 341 340 339 338 336 337 336 337 342 342 342 341 339 339 339 339 338 338 338 340
356 357 355 352 351 343 333 329 331 332 330 336 338 339 343 344 346 345 345 347 350 351 351 350 350 354 355 354 355 353 354 355 356 356 355 355 354 355 355 355 356 356 356 355 355 355 354 354 355 353 352 352 353 352 352 353 353 353 352 351 349 348 347 346 345 344 344 345 344 344 343 343 342 341 341 342 341 339 337 337 336 334 335 335 337 342 343 343 340 339 339 338 338 337 336 338 339
353 351 352 352 346 339 335 334 334 329 329 337 337 339 342 342 345 344 346 348 349 349 348 350 350 353 354 356 357 354 353 355 355 355 355 354 353 354 355 355 356 356 356 357 357 356 356 355 357 354 351 354 353 352 353 352 352 352 351 350 349 348 347 346 346 345 344 345 345 344 344 343 342 342 342 341 339 338 337 338 338 334 335 335 336 342 343 342 340 339 340 339 338 338 338 341 344
347 349 351 349 340 333 334 339 336 330 332 336 336 337 338 341 343 344 346 348 348 347 349 350 349 352 352 354 356 353 353 354 354 355 354 353 354 355 356 356 356 357 356 357 357 357 356 355 357 355 354 355 354 354 353 352 351 351 351 350 349 348 347 347 347 345 344 345 345 344 342 343 344 344 343 341 341 338 336 338 338 335 335 335 336 342 344 341 340 340 339 339 340 342 344 346 348
346 351 352 344 340 335 335 342 337 331 334 335 336 336 338 341 342 344 345 344 346 347 349 348 347 349 349 351 354 353 354 354 354 355 355 354 354 355 356 356 356 357 357 357 357 357 356 357 358 357 358 355 355 357 354 352 350 350 351 350 349 348 347 347 346 344 344 344 344 342 341 347 351 351 349 349 350 345 341 339 335 335 336 335 337 343 344 341 341 341 341 340 341 346 348 349 350
349 355 350 339 342 341 338 343 340 335 336 335 337 336 337 340 339 342 343 343 345 346 347 346 347 348 351 353 353 354 354 354 355 355 356 355 355 355 356 357 358 357 357 358 358 357 357 358 358 357 358 356 356 357 356 353 349 350 351 349 349 347 347 347 345 343 343 344 343 341 344 352 355 354 353 354 355 352 348 342 338 339 339 338 340 343 343 342 344 344 346 345 345 347 349 350 350
350 355 348 341 345 343 341 343 340 339 338 336 337 337 337 338 336 338 343 343 343 346 346 346 349 351 353 353 354 354 354 355 356 356 356 355 355 355 355 357 357 357 357 358 357 357 357 358 358 358 359 357 357 356 358 356 349 351 352 349 349 347 346 345 343 345 348 350 347 346 351 354 353 353 353 354 354 353 348 342 344 347 346 344 342 343 344 346 347 347 349 348 348 349 349 350 349
348 349 346 345 345 343 341 341 341 340 340 338 337 337 337 337 335 338 342 341 342 346 345 347 352 353 353 352 353 354 354 355 356 357 356 355 355 355 355 357 356 357 357 358 357 357 357 358 358 358 358 357 357 356 358 357 350 353 356 353 351 350 349 346 346 350 354 355 353 353 355 354 353 353 353 351 350 350 346 344 348 349 349 349 344 345 348 349 348 349 350 350 351 351 349 350 349
346 346 346 345 344 343 341 340 341 340 341 340 337 337 335 335 335 337 341 339 341 344 343 347 352 352 352 351 352 354 355 355 356 356 355 354 354 354 355 356 356 356 357 357 358 358 358 358 359 358 358 357 358 356 357 358 354 355 358 356 356 355 355 352 352 355 356 356 356 355 355 355 353 352 352 351 349 348 348 348 350 350 350 352 349 349 351 349 349 349 350 350 351 352 350 349 349
345 346 346 344 343 344 341 339 341 340 341 340 338 337 335 335 335 336 340 339 340 343 343 346 350 351 350 351 353 354 354 354 354 354 354 354 353 354 355 355 356 356 356 357 358 357 357 358 359 359 358 358 357 356 357 358 356 357 357 357 357 356 357 356 355 357 356 356 356 357 355 354 352 350 351 352 351 350 350 351 353 352 351 352 351 351 349 349 350 350 350 351 351 351 350 350 349
344 344 344 344 342 344 342 339 339 338 340 340 340 337 335 334 336 338 339 338 338 340 343 344 349 350 349 351 352 352 352 352 352 353 354 353 353 354 354 355 355 355 356 356 357 357 356 357 357 358 358 357 357 356 357 358 356 357 358 357 357 356 356 356 355 356 356 356 356 357 355 351 351 352 352 353 353 353 351 351 353 351 351 351 350 351 350 350 350 350 351 351 351 351 350 350 349
342 343 344 343 343 344 341 339 338 336 340 341 341 339 335 335 336 338 339 338 337 338 343 345 347 350 349 350 351 351 352 351 351 353 354 353 353 353 354 355 355 355 355 355 356 356 356 356 356 357 357 357 358 356 356 358 356 356 358 357 357 356 355 355 355 355 354 355 356 354 354 352 352 352 351 352 353 353 352 351 351 350 350 349 349 351 350 350 351 351 351 351 351 351 350 349 347
339 340 343 344 343 344 340 339 339 338 340 340 339 339 336 336 336 337 337 336 338 338 342 345 346 349 348 348 349 352 352 350 351 352 353 353 352 353 353 354 355 355 355 355 356 356 355 355 356 357 357 358 358 357 356 358 357 356 356 355 355 355 354 354 354 354 354 355 355 354 355 353 352 351 350 351 351 352 352 352 352 351 351 349 350 351 350 350 351 351 351 351 351 350 350 348 345
336 337 339 341 342 342 341 340 340 339 340 340 339 339 336 335 335 335 336 335 337 339 342 345 347 348 348 348 348 351 351 349 350 351 352 352 351 352 352 353 355 355 355 356 355 355 355 355 356 357 357 358 357 357 356 357 357 355 355 353 353 354 354 354 353 354 354 355 356 355 355 354 353 352 351 352 352 353 354 354 353 352 351 350 351 351 350 350 351 351 351 352 351 350 350 347 344
333 334 335 337 339 341 341 340 340 339 339 340 340 340 337 336 335 334 336 335 336 339 341 344 347 347 348 347 348 350 351 349 351 350 350 350 351 352 352 353 354 354 355 355 355 354 354 354 356 356 357 358 357 357 356 356 356 354 356 355 354 355 354 354 354 354 353 354 356 355 355 355 354 353 353 354 354 355 355 354 353 353 352 351 351 351 350 350 351 351 352 353 351 350 349 346 345
333 334 336 336 338 340 340 340 340 339 339 341 340 342 340 336 332 335 336 334 336 339 341 345 346 347 347 347 348 351 351 349 351 350 349 350 351 352 351 352 353 353 355 355 355 354 354 354 354 356 357 358 357 357 356 356 356 355 357 357 356 356 355 354 354 354 353 353 354 355 356 357 354 354 356 357 356 355 355 354 353 352 353 352 351 352 351 351 351 351 352 352 351 350 347 344 344
331 334 335 336 339 339 339 340 339 338 339 341 340 340 340 338 334 336 337 335 336 338 341 343 345 347 347 347 348 350 351 350 351 349 350 351 351 352 351 352 352 352 354 354 355 354 354 354 354 356 357 358 357 356 355 355 355 357 358 358 357 357 357 355 354 354 353 353 355 357 357 357 356 356 357 357 356 356 355 353 352 353 353 352 352 353 353 352 351 351 350 350 349 348 345 344 343
332 333 333 334 335 336 340 338 338 337 337 341 339 330 335 341 336 337 338 335 336 337 339 343 343 345 346 347 348 350 350 349 350 349 350 352 351 351 350 350 352 352 352 353 354 355 354 353 353 356 357 358 358 356 355 355 355 358 358 358 357 357 358 357 356 355 355 355 357 359 357 355 357 357 356 355 354 356 356 354 353 354 354 352 352 353 354 353 351 350 350 349 348 347 345 344 342
332 331 331 332 324 326 339 337 337 338 336 342 338 326 334 345 338 338 338 335 336 337 339 341 341 343 344 346 348 349 351 349 350 349 349 351 350 351 351 351 352 351 353 353 353 354 354 353 353 355 356 357 358 356 355 355 355 357 358 358 357 357 358 358 358 356 357 357 357 358 356 356 357 357 358 355 353 356 356 355 354 354 353 352 352 353 352 352 352 350 350 349 347 346 345 344 342
334 325 321 327 322 324 338 336 335 337 336 342 336 327 337 346 340 339 338 335 336 338 339 339 340 341 342 345 348 348 349 350 350 350 349 351 351 352 352 352 352 352 353 353 353 354 353 352 352 353 354 357 357 356 355 355 355 356 357 358 357 358 359 358 358 357 357 356 356 356 356 357 356 356 357 353 351 354 356 356 354 353 351 351 353 353 352 353 352 350 349 348 347 346 345 344 342
331 325 315 320 321 322 332 335 334 337 336 340 337 332 339 344 341 340 339 336 335 338 340 339 340 340 341 344 346 348 349 350 350 350 350 351 352 352 351 352 352 352 353 354 354 354 354 353 352 353 354 356 357 356 355 355 355 356 356 356 356 357 358 358 357 357 356 355 355 355 356 357 355 354 355 353 351 353 356 356 355 355 353 352 354 354 353 353 352 350 348 348 347 346 345 344 342
321 325 319 321 324 322 324 332 335 335 337 341 339 339 341 342 342 340 340 337 335 338 340 339 340 341 343 343 343 347 349 350 351 351 351 351 352 352 351 351 352 353 353 354 355 355 355 354 353 353 354 355 357 357 356 355 356 356 355 355 355 356 357 357 355 356 356 355 356 356 356 357 355 354 354 353 352 352 356 357 357 357 355 353 355 355 353 352 351 349 348 347 346 346 345 344 342
316 319 318 319 324 323 323 330 334 335 337 341 340 340 343 343 342 340 340 338 336 339 340 339 340 340 343 342 342 346 347 349 351 352 352 351 352 352 351 351 352 353 354 354 355 356 356 355 354 354 355 356 357 358 357 356 356 356 356 355 355 356 357 357 356 355 357 356 356 356 357 357 357 355 352 352 352 352 354 357 358 358 356 353 353 354 354 352 350 348 347 347 347 346 344 343 342
323 324 322 319 319 323 329 334 336 337 337 341 341 338 343 344 342 342 340 338 337 339 340 340 340 340 342 342 342 344 347 349 351 352 352 351 353 352 352 353 353 353 354 354 355 356 356 355 355 355 355 356 357 359 358 358 358 357 357 356 355 356 356 358 357 356 357 358 358 358 359 359 357 355 353 353 354 354 354 357 359 357 356 354 353 353 352 350 348 347 347 345 346 346 345 342 340
330 329 326 324 321 321 332 338 337 338 336 337 343 342 344 344 342 342 341 340 339 337 339 342 341 341 341 342 342 343 346 348 350 352 351 351 352 353 353 354 355 355 354 354 355 357 357 356 356 356 355 356 357 358 359 359 358 358 357 356 356 356 356 357 358 357 357 358 358 359 361 359 356 355 356 355 355 356 356 358 358 356 355 356 354 352 350 348 347 346 345 343 343 343 343 341 339
330 328 325 323 322 324 333 338 336 338 335 335 343 342 343 345 344 343 342 341 341 339 339 341 342 342 342 344 344 343 344 346 349 351 351 351 352 353 354 355 355 355 354 355 356 357 358 358 357 358 357 357 357 357 359 360 358 357 357 357 355 355 357 358 359 358 356 357 356 357 360 359 356 357 357 356 356 357 357 357 357 356 356 355 352 349 347 347 346 345 344 343 343 341 339 338 339
329 329 323 319 324 328 332 337 337 338 334 334 342 340 341 346 346 344 345 344 344 343 341 341 343 344 343 344 345 344 345 347 348 349 350 350 352 352 355 356 355 354 355 355 356 358 359 360 359 359 359 358 357 357 358 359 358 357 356 356 356 355 356 357 359 359 357 356 355 357 360 360 359 360 359 358 357 358 357 356 355 355 354 351 349 347 347 347 345 344 342 341 341 340 338 338 340
329 328 320 317 325 326 322 329 338 339 336 336 341 339 340 346 345 345 346 344 345 345 343 342 343 345 345 343 345 346 346 348 348 347 349 350 351 353 355 357 356 354 355 355 356 359 360 362 361 360 361 360 358 357 358 359 358 357 355 356 356 355 354 355 357 358 358 358 357 358 360 362 362 362 361 360 359 357 356 355 354 352 350 349 349 348 347 346 344 342 342 341 341 341 340 340 342
328 329 323 320 327 327 324 331 338 337 336 339 337 330 332 342 344 345 347 345 344 345 345 346 345 345 345 344 346 346 346 349 349 347 349 351 350 352 356 358 356 354 355 355 356 359 361 363 362 360 361 361 359 357 357 359 360 359 358 357 358 357 356 354 356 358 359 361 360 360 361 362 362 361 360 358 358 356 354 353 352 351 350 349 348 347 345 343 343 341 342 343 340 341 342 340 341
322 328 330 328 330 331 332 335 333 326 325 335 335 321 323 337 343 345 346 345 346 347 347 348 349 349 347 346 346 346 346 348 350 349 349 351 351 353 357 358 357 355 355 356 357 359 361 362 362 361 361 361 361 358 357 360 362 362 360 360 360 360 359 357 356 359 360 361 361 360 359 361 361 359 358 356 355 354 353 352 352 351 350 349 347 346 343 341 341 341 341 341 340 342 342 340 340
316 326 332 332 334 332 331 332 325 316 318 334 337 324 320 329 337 345 346 346 349 351 350 349 352 352 348 347 347 347 347 346 348 350 348 351 351 352 356 358 358 356 355 356 357 359 361 363 363 362 361 361 361 360 358 359 362 362 361 362 362 362 362 360 359 359 358 358 358 356 355 357 358 357 355 355 354 352 352 352 351 350 348 347 346 345 342 340 340 341 341 340 341 342 341 340 340
316 328 334 332 333 331 331 329 323 320 324 332 336 330 321 321 331 347 348 345 351 353 351 350 351 351 348 348 347 347 349 347 348 349 349 351 352 353 354 358 359 357 356 356 357 358 361 362 363 363 362 361 361 361 360 359 361 362 362 363 364 363 362 361 359 359 357 355 355 354 353 354 356 355 354 353 353 352 352 352 351 349 347 346 345 344 342 340 341 342 341 341 342 342 341 341 341
323 332 333 332 333 332 332 329 323 325 325 319 326 330 323 318 329 346 349 344 348 352 351 351 351 352 350 349 348 347 349 350 348 348 348 350 353 354 354 356 358 357 356 356 357 358 360 361 363 363 362 361 361 362 361 361 361 362 362 363 364 362 360 359 358 358 357 356 354 352 351 353 354 355 353 352 352 351 350 351 351 349 347 345 344 343 341 339 340 342 342 342 343 341 341 341 340
328 331 331 332 333 332 333 329 322 322 320 314 319 324 322 319 325 336 341 338 344 351 349 350 352 352 352 350 348 347 351 353 350 348 350 351 352 353 353 355 357 357 357 356 356 358 359 361 362 363 363 362 362 362 362 362 362 362 363 363 364 362 360 358 357 357 357 356 354 352 351 352 355 355 354 353 352 351 350 351 350 348 346 345 343 341 340 339 340 341 341 341 342 341 341 340 339
328 330 330 329 331 332 331 328 323 318 317 316 318 321 323 321 323 330 337 339 343 348 347 348 350 351 353 352 347 346 350 352 351 349 352 353 352 353 353 354 356 358 356 356 356 357 359 361 362 363 363 363 363 362 362 363 363 363 363 363 364 363 361 359 358 356 356 355 354 354 354 354 356 356 355 354 353 352 351 350 349 348 347 345 342 340 339 339 340 340 339 340 340 340 340 339 338
328 329 327 321 321 323 322 321 321 317 315 316 319 323 322 317 322 333 342 345 345 345 345 347 348 349 353 351 346 346 348 349 350 352 354 355 355 355 355 356 356 357 357 356 356 357 360 360 362 364 364 364 364 363 363 363 363 364 364 364 363 363 361 360 359 356 356 356 355 356 357 356 356 356 354 353 352 351 351 350 349 348 347 345 342 340 340 338 338 339 339 339 340 340 339 339 339
327 326 320 314 312 314 314 314 315 314 314 317 321 322 319 317 326 338 344 345 344 344 344 345 345 348 351 349 348 348 349 347 348 352 353 356 359 356 356 357 357 358 358 357 357 358 360 361 362 364 365 365 364 363 363 363 364 365 364 364 363 362 362 361 360 358 357 357 358 358 358 357 356 355 353 351 351 350 350 350 349 347 346 345 342 341 339 338 338 339 340 339 339 340 340 339 339
323 319 314 312 311 313 314 313 314 315 314 317 322 322 317 317 329 341 343 341 343 344 342 343 345 349 351 350 350 350 352 351 351 352 353 355 360 358 357 359 359 359 359 358 358 358 360 362 363 364 365 365 364 364 364 364 365 365 365 364 363 362 362 361 361 359 358 358 359 359 358 358 357 355 353 351 350 350 349 349 349 347 346 344 342 340 339 338 339 340 339 339 339 339 339 339 339
323 325 321 314 312 313 313 313 314 315 314 315 320 320 315 315 328 341 341 340 342 342 342 344 346 349 350 350 351 351 352 352 352 353 353 355 358 358 358 359 360 359 359 358 358 359 361 362 363 364 365 366 365 365 365 365 365 365 365 364 363 362 362 362 362 360 359 359 358 359 358 357 357 355 353 351 350 349 349 348 348 347 346 344 341 340 340 340 340 340 340 339 338 338 338 338 338
323 328 322 314 317 317 313 313 314 313 313 314 315 317 320 326 336 341 341 339 341 342 342 343 345 346 346 346 349 351 349 349 348 351 354 356 358 358 358 358 360 360 359 358 357 359 361 362 363 364 365 366 366 366 366 366 365 365 365 364 363 363 362 363 363 361 360 359 358 358 357 357 357 355 353 351 350 349 348 348 348 347 345 343 342 340 340 341 341 340 340 339 338 338 338 337 337
321 320 315 319 327 323 313 311 314 313 313 316 314 315 322 328 333 338 340 341 341 342 342 340 343 346 346 348 352 350 349 348 348 351 357 358 357 358 359 357 358 359 358 358 357 358 361 362 363 365 366 367 367 366 366 366 366 365 365 365 364 364 363 363 363 362 361 359 358 358 357 357 356 355 354 352 351 349 348 348 348 346 344 343 342 341 340 341 341 341 341 340 338 337 337 336 337
320 314 316 324 327 325 319 312 313 313 313 315 313 313 316 317 323 335 341 341 341 342 342 340 344 345 344 348 352 351 348 349 351 355 360 360 357 357 359 357 357 357 357 358 358 359 360 361 363 365 366 368 368 367 366 366 367 366 366 365 364 364 364 363 362 362 361 360 359 358 358 357 357 356 355 354 352 350 349 348 347 346 344 343 343 342 341 341 342 341 340 340 338 337 337 337 336
323 319 325 324 314 314 316 313 313 313 313 315 314 313 315 314 319 330 338 340 342 342 343 342 341 344 343 346 353 352 350 350 351 354 359 360 357 358 359 358 357 357 358 359 359 359 359 360 362 364 365 368 368 368 367 366 366 366 366 366 365 365 365 363 361 361 361 360 359 359 359 359 357 356 355 354 353 352 350 348 347 345 345 344 343 343 342 342 342 342 340 340 339 337 337 338 337
325 323 326 324 317 314 313 314 314 312 312 315 314 313 314 318 327 334 337 342 343 342 344 344 341 341 341 344 352 354 352 353 352 349 354 358 355 354 356 357 358 358 358 359 359 358 357 359 361 362 363 366 369 368 367 366 366 366 366 366 365 365 365 363 361 360 360 360 359 359 359 358 358 356 355 354 353 352 351 349 347 346 345 344 344 344 343 342 342 341 341 340 339 338 337 337 337
320 316 316 317 319 319 317 316 314 312 313 314 315 313 313 323 336 339 342 346 343 342 346 346 342 340 340 340 348 353 354 356 355 350 350 352 352 352 354 358 359 359 359 359 358 357 356 357 359 361 364 366 368 369 368 367 366 366 366 367 367 366 365 364 361 360 360 360 359 358 357 358 357 356 354 354 353 352 352 350 347 347 347 346 345 344 343 343 342 341 341 340 339 338 337 337 336
321 317 316 315 316 316 314 314 314 313 313 313 315 313 314 327 339 341 343 344 340 340 343 343 341 339 341 341 346 353 356 356 354 350 348 350 352 354 355 357 358 359 360 358 358 357 355 356 359 361 364 366 367 368 367 366 366 366 366 366 367 366 365 364 362 361 360 360 360 358 356 356 356 354 353 354 354 353 352 351 349 347 347 346 345 344 344 344 342 340 340 340 339 339 338 337 336
Wind_Speed
16 13 12 12 9 4 1 1 2 0 0 3 2 2 2 1 8 6 7 7 5 8 10 10 11 11 11 14 15 15 12 7 5 4 5 10 19 22 22 26 25 25 25 23 23 21 21 22 22 23 24 24 23 24 25 23 22 22 22 21 20 19 18 17 17 16 16 16 16 17 16 16 16 16 16 15 14 14 15 15 14 14 13 12 12 12 12 12 12 12 13 12 12 11 11 10 10
17 15 13 12 9 5 1 2 2 1 1 2 1 4 2 1 8 8 7 10 7 11 13 11 13 14 15 16 17 17 15 14 14 10 10 20 23 22 26 26 25 26 26 24 23 21 21 22 22 23 23 24 23 23 23 22 21 21 21 20 19 18 18 17 17 16 16 16 16 16 16 15 15 15 15 14 13 13 14 14 13 12 12 11 11 11 11 11 11 11 11 11 11 10 10 10 9
16 15 14 9 5 3 1 2 3 2 1 2 2 2 5 2 8 11 10 12 11 14 14 12 12 11 14 16 15 15 13 13 18 14 13 22 19 20 27 25 25 26 25 25 23 22 21 21 22 23 22 23 23 22 22 22 21 20 20 19 18 17 17 17 16 16 16 15 15 15 15 14 14 14 14 13 12 12 13 12 11 11 10 10 10 10 10 10 10 10 10 10 10 9 9 9 8
16 14 13 8 1 3 2 2 4 3 3 1 2 2 5 7 11 12 12 11 12 13 12 12 10 10 14 17 14 13 13 13 17 15 11 18 20 24 28 25 25 25 24 23 22 22 22 22 22 22 21 22 21 21 21 20 19 19 18 17 16 16 17 16 16 16 15 15 15 14 14 14 13 13 13 12 11 11 12 11 10 9 9 9 10 10 10 9 9 9 9 9 9 9 9 8 7
14 10 9 7 1 2 2 3 5 4 4 3 3 5 7 10 12 11 11 10 11 11 11 12 11 11 14 13 10 9 12 12 16 17 14 20 25 28 27 25 25 24 24 23 22 23 24 24 22 21 21 21 21 20 20 19 18 17 16 16 15 16 16 16 16 15 15 14 14 14 13 13 13 12 11 10 10 10 11 10 9 8 8 9 9 9 9 8 8 8 8 8 8 8 8 7 7
11 8 8 7 3 4 4 5 7 3 8 7 4 6 10 11 11 11 11 11 10 11 12 13 13 13 12 11 10 9 12 12 14 18 20 24 26 27 26 25 23 24 25 23 23 23 25 24 23 22 21 21 20 20 19 18 17 17 16 15 15 15 16 15 15 14 13 13 13 12 12 13 12 11 10 9 9 10 10 8 8 7 8 8 8 8 8 8 8 8 7 7 7 7 7 7 6
10 5 4 5 5 5 6 9 6 2 8 8 4 8 11 10 10 11 11 10 9 11 13 13 14 14 11 10 10 11 14 16 16 19 24 27 27 27 25 24 23 23 23 23 22 23 24 23 23 22 20 20 19 19 18 18 17 17 16 15 16 16 15 15 14 13 12 12 12 12 12 12 11 10 9 8 8 9 9 7 6 6 7 8 8 8 8 9 9 8 7 7 7 6 6 6 5
8 4 1 4 6 5 8 10 2 5 7 8 7 7 10 10 9 9 9 9 9 11 13 14 15 14 12 13 11 10 16 19 21 25 28 28 27 25 24 24 24 23 22 22 23 24 23 22 22 21 20 19 19 19 18 18 17 16 16 16 16 16 15 14 13 12 11 11 11 11 11 11 11 9 8 7 8 8 7 6 5 6 7 8 8 9 10 10 10 9 9 8 7 6 5 6 5
3 2 2 5 7 7 8 4 4 5 7 9 7 7 8 8 7 7 8 10 11 12 12 13 14 14 13 15 13 10 17 23 26 28 27 28 27 24 24 24 24 23 23 22 24 25 23 21 20 20 19 18 19 18 18 18 17 16 16 16 16 15 14 13 13 12 11 11 10 10 10 10 10 8 7 6 7 7 6 4 4 5 6 8 9 10 11 11 11 10 9 9 8 7 6 6 6
1 1 3 6 7 10 7 2 5 5 8 8 8 8 7 6 6 6 8 12 14 13 14 14 15 15 14 15 12 10 17 23 25 26 26 27 27 24 24 23 24 24 23 23 25 25 23 21 20 19 19 18 18 18 18 18 17 17 16 16 15 14 14 13 12 12 11 10 9 9 9 9 8 7 6 5 6 6 5 4 4 5 5 7 9 10 11 11 11 10 10 9 9 9 8 7 8
1 2 2 6 7 7 4 4 5 5 9 8 8 7 6 6 5 6 9 13 15 14 15 13 14 16 15 13 9 12 20 22 24 25 25 25 25 25 24 23 23 23 24 23 24 25 23 21 20 20 19 18 18 18 18 17 17 17 16 16 15 14 13 13 12 11 10 10 9 8 8 8 7 6 5 4 5 5 5 4 3 4 5 7 9 10 10 11 11 10 10 10 9 9 9 9 10
2 3 1 6 8 4 1 5 6 6 9 8 8 7 6 7 6 9 10 12 14 15 15 11 12 14 14 12 8 15 22 21 23 24 24 24 25 25 24 22 22 23 24 24 23 24 24 21 19 19 18 18 18 18 18 17 17 16 16 15 14 14 13 12 12 11 10 9 9 8 7 7 6 5 4 4 4 4 4 3 3 4 4 7 9 9 9 10 10 9 10 10 9 9 9 10 10
2 4 2 7 9 5 1 4 5 6 8 7 7 7 6 7 7 9 10 12 12 12 15 13 13 13 12 12 10 14 19 21 23 23 24 23 24 26 24 22 22 23 24 24 23 23 23 21 19 18 18 18 18 18 18 17 17 16 15 15 14 13 12 12 11 11 10 9 8 7 7 6 6 5 4 4 3 3 3 2 1 3 4 7 9 9 9 10 9 9 9 9 8 9 9 10 10
2 3 3 7 9 6 1 2 4 5 7 7 6 6 6 7 8 7 9 12 11 12 16 15 13 13 12 11 10 10 15 22 22 23 23 22 24 27 25 23 23 24 23 23 23 23 22 20 19 18 18 18 17 18 17 17 17 16 15 14 14 13 12 11 11 10 9 8 8 7 7 6 6 5 4 4 3 2 1 1 1 2 4 7 8 8 9 9 8 8 8 8 8 8 9 10 10
5 2 3 6 9 4 1 3 3 6 7 8 7 4 5 8 9 8 9 12 12 14 15 14 11 10 12 12 10 11 18 24 22 22 23 23 23 25 26 25 24 24 23 23 23 22 21 20 19 19 18 17 18 17 17 17 17 16 15 14 13 12 12 11 10 9 9 8 8 7 7 6 6 5 4 3 2 1 0 0 1 3 5 6 7 8 8 8 8 8 8 9 9 8 7 8 10
2 1 2 5 9 6 1 4 2 6 8 9 7 6 8 8 8 9 10 11 12 15 12 11 10 9 13 14 14 19 24 25 23 23 23 23 23 22 23 23 22 22 22 22 21 21 20 20 20 19 19 18 18 17 16 17 16 16 14 14 13 12 11 10 10 9 9 8 7 7 6 6 5 4 4 3 2 1 1 1 2 4 5 6 7 6 7 7 8 8 8 9 9 9 6 7 8
1 0 3 5 9 7 0 1 3 5 9 9 8 8 9 8 7 9 10 11 12 14 10 10 10 11 14 16 21 26 26 25 24 24 23 22 22 20 19 19 20 20 20 20 20 20 19 19 19 19 19 19 18 17 16 16 17 15 14 14 13 12 11 10 10 9 9 8 8 7 6 6 5 5 4 4 3 1 1 2 4 5 6 6 6 6 6 8 8 8 9 9 9 9 6 5 7
3 2 3 5 8 3 1 1 2 4 9 9 8 9 10 8 9 8 9 12 12 13 10 10 12 13 17 22 27 27 26 26 24 23 22 20 19 18 17 17 18 18 19 19 19 20 20 19 19 19 19 19 18 17 17 17 17 15 14 14 13 12 12 11 10 10 9 8 8 7 6 6 7 7 5 6 5 4 3 2 3 4 5 5 5 5 5 7 7 7 9 10 9 9 8 7 8
6 3 4 6 8 1 2 0 3 3 7 10 6 8 10 8 9 8 9 13 11 12 11 11 15 17 20 23 26 26 25 25 24 23 22 21 19 18 17 17 17 18 19 18 19 20 20 20 19 19 19 19 18 17 17 16 17 16 14 14 13 13 12 11 11 10 10 9 8 7 7 7 7 7 5 6 6 6 4 2 2 3 4 4 4 4 4 5 6 7 7 9 10 10 9 8 8
5 3 5 6 10 4 3 1 4 3 4 9 6 7 9 8 8 8 10 13 11 11 11 13 16 18 19 20 23 25 25 24 23 22 21 21 20 19 18 18 18 19 19 18 19 19 19 19 19 19 19 20 18 16 16 16 18 17 15 15 14 14 13 12 11 11 11 10 9 8 9 9 7 6 6 6 5 6 6 4 3 2 2 3 3 2 3 4 6 7 6 8 9 8 8 8 7
4 4 6 7 13 8 3 1 4 6 4 7 7 6 9 9 7 7 11 11 9 10 12 15 17 19 20 20 22 22 23 22 22 22 21 21 20 19 18 18 19 18 19 18 18 19 19 19 18 19 19 20 18 16 16 16 17 16 15 15 14 14 14 13 12 12 11 11 11 10 10 8 7 6 5 5 5 6 7 7 6 4 2 1 1 2 3 4 6 6 7 9 7 7 8 8 7
7 8 9 10 12 10 1 3 4 7 7 6 6 6 8 8 6 6 11 8 7 11 12 17 19 20 21 20 20 20 20 20 20 21 20 20 20 19 19 18 19 18 18 18 18 19 19 19 18 19 19 19 18 16 16 16 16 16 16 15 15 14 14 13 13 12 12 12 12 11 10 9 8 5 5 6 5 5 6 7 7 5 4 1 1 2 2 3 6 5 6 7 6 7 8 8 8
9 9 11 10 7 11 5 4 4 4 7 8 5 6 7 8 7 5 8 4 6 15 14 17 20 20 22 20 20 19 20 19 19 20 20 21 20 19 20 19 19 19 18 18 18 19 19 19 19 19 19 19 17 16 16 16 16 15 16 15 14 14 14 14 14 14 13 13 12 12 11 8 6 5 6 7 6 5 5 6 7 5 4 2 1 3 3 3 4 5 5 6 6 7 7 7 7
10 7 13 12 10 13 5 4 4 4 6 8 6 7 7 9 8 6 6 2 7 17 16 18 20 21 22 20 19 19 20 20 20 21 21 21 20 20 20 19 19 19 18 19 19 19 19 20 19 19 19 19 18 17 16 16 16 15 15 15 15 15 15 15 14 15 14 13 13 12 10 7 7 7 8 8 8 7 6 6 6 4 4 3 2 3 3 3 3 4 5 6 6 7 7 7 7
13 9 13 15 14 11 3 3 7 6 4 5 7 8 7 8 9 7 7 6 9 17 16 18 20 21 21 19 20 18 18 20 20 22 21 20 20 20 20 19 19 18 18 19 19 19 20 20 20 19 20 19 17 17 16 15 16 15 15 16 16 15 14 14 14 13 14 13 13 12 10 9 9 9 8 7 7 7 4 4 4 3 3 3 3 3 3 2 3 5 5 6 6 7 7 7 8
12 11 11 12 10 8 5 8 7 7 6 6 8 9 8 6 9 8 9 9 9 16 17 18 20 19 19 19 19 18 18 19 19 21 21 20 20 20 20 19 19 18 19 19 19 19 20 21 21 20 20 20 18 16 16 15 16 15 15 16 15 14 13 13 12 12 13 12 13 13 11 10 8 7 6 4 4 4 3 3 4 4 3 2 3 3 3 2 4 5 6 6 7 8 6 6 7
10 9 9 9 8 7 8 9 8 8 8 9 9 8 9 7 7 7 10 12 9 16 17 17 18 18 18 18 18 17 17 18 20 20 20 20 20 20 20 20 19 19 19 20 20 20 21 21 21 20 20 20 19 17 16 15 15 15 15 15 14 14 13 12 11 12 13 12 13 13 12 10 7 5 3 2 3 3 3 4 3 3 3 2 3 4 4 4 3 4 5 6 7 6 6 7 6
12 10 7 9 10 9 10 11 10 8 8 12 10 8 9 9 6 7 13 13 11 16 17 18 17 16 17 17 17 14 14 17 21 20 19 19 18 20 20 19 20 20 20 20 19 20 21 22 21 21 20 21 19 17 17 16 15 15 14 14 14 14 13 12 10 10 11 11 11 13 12 10 7 5 4 4 4 3 3 3 2 2 3 3 3 4 6 5 4 5 4 6 7 5 6 8 7
15 13 8 12 12 11 13 12 10 9 9 13 11 8 9 10 7 9 17 13 12 16 16 17 16 15 16 16 15 13 13 16 19 19 20 20 19 21 21 20 21 20 21 21 19 20 21 22 22 21 20 21 20 17 17 16 15 15 15 14 14 13 13 12 11 10 9 8 8 10 11 8 7 7 6 6 4 3 3 3 3 3 4 4 4 5 6 5 6 6 5 5 6 6 6 8 8
14 14 10 9 11 11 13 12 11 12 10 14 11 6 8 11 8 9 17 14 14 15 15 16 15 14 14 14 14 13 13 15 16 18 21 23 21 22 23 21 22 21 21 22 21 21 21 21 21 21 21 21 21 18 17 17 16 15 15 14 13 13 13 12 11 10 9 9 9 9 8 7 7 7 6 7 6 5 4 5 5 5 6 6 6 6 5 6 5 5 6 4 4 7 7 6 7
10 12 9 7 7 7 12 13 13 12 11 16 12 5 6 11 10 10 16 15 15 15 15 16 15 14 14 13 14 14 14 14 17 20 22 24 22 22 23 22 22 21 21 22 23 22 22 21 21 21 22 22 21 19 17 17 16 15 14 13 13 13 12 12 11 11 11 11 10 9 9 8 8 7 8 8 7 6 4 5 7 8 9 7 7 7 5 6 4 4 6 4 2 6 7 6 7
9 10 9 8 7 6 9 12 14 12 11 15 12 5 5 9 11 11 15 15 15 15 15 15 15 16 15 13 14 14 13 15 19 21 22 23 23 21 23 23 23 22 22 23 23 23 22 22 21 21 22 22 21 20 18 17 16 15 14 12 12 12 11 11 11 11 11 11 11 10 10 10 9 9 9 10 9 8 6 7 9 10 10 8 7 7 6 5 4 5 6 4 3 4 5 7 8
9 9 9 9 10 7 7 11 15 12 10 13 12 6 4 7 11 13 16 16 15 15 16 16 16 16 16 13 13 13 13 15 16 19 22 23 23 23 23 24 25 24 23 23 24 23 22 22 22 21 22 23 22 21 19 17 16 15 14 12 11 12 11 11 11 11 11 12 13 12 12 12 10 10 10 11 10 10 9 8 9 9 10 9 6 6 6 5 4 6 5 4 3 4 4 7 8
7 8 9 10 11 9 7 8 13 13 10 11 12 9 6 7 13 15 17 17 15 15 16 17 15 14 15 13 14 14 13 15 14 17 23 24 23 24 23 24 25 25 23 23 24 24 23 22 23 21 21 23 22 21 20 18 16 15 14 13 12 12 12 11 11 10 10 11 11 12 12 13 11 10 11 11 10 11 10 9 8 9 9 7 6 5 5 5 5 4 4 3 4 4 4 6 7
10 10 9 10 13 12 11 9 9 13 12 11 12 11 8 7 12 17 17 16 15 15 15 15 15 15 15 14 14 14 14 15 15 18 23 24 24 24 23 24 24 24 24 23 24 26 25 23 23 22 21 22 22 21 20 18 16 16 14 13 12 13 12 12 11 11 11 10 10 11 12 12 12 11 11 10 11 12 11 9 9 9 8 7 9 7 5 6 5 2 2 4 4 4 4 4 5
15 13 11 11 11 11 9 10 10 13 13 12 12 11 9 9 11 16 16 15 15 14 14 14 14 15 15 14 13 14 15 15 16 21 24 24 24 24 23 23 24 24 24 24 25 27 27 24 23 23 21 21 22 21 20 19 17 16 16 14 14 15 14 13 12 12 11 11 10 11 12 12 12 12 11 11 11 11 10 9 9 9 8 7 9 9 6 5 3 2 3 4 4 4 4 5 5
19 14 13 14 11 8 8 11 14 14 12 12 12 12 11 8 10 15 15 15 16 15 15 14 14 14 14 15 15 14 15 14 18 22 24 24 24 25 24 22 23 24 24 26 26 26 28 26 23 24 23 21 23 23 22 20 19 18 17 16 15 15 15 14 13 13 12 11 11 11 13 13 13 13 13 12 11 10 9 10 10 9 8 7 8 8 4 4 4 3 4 4 3 3 5 7 5
20 16 13 13 10 9 11 12 15 17 12 11 14 14 13 11 11 13 14 15 16 16 15 14 16 15 14 15 16 15 13 13 17 20 22 25 25 25 25 23 24 25 26 27 27 26 26 26 24 24 25 23 23 24 24 21 20 19 18 17 16 14 15 15 13 13 12 12 12 12 13 13 13 13 13 12 11 10 9 9 8 8 7 5 5 6 6 6 4 4 4 4 4 2 4 5 3
18 14 13 10 9 9 10 12 15 17 9 9 14 14 12 15 15 13 13 14 13 14 16 14 15 15 14 16 16 15 14 13 15 18 20 24 26 26 25 24 25 26 26 27 27 26 26 27 26 25 26 26 23 24 24 23 21 20 18 16 16 14 14 14 13 13 13 13 12 13 15 14 13 14 13 12 10 9 8 8 7 7 7 7 9 9 7 6 4 3 4 4 3 3 4 3 2
15 13 12 10 11 10 8 11 14 17 10 9 13 11 10 13 15 14 14 15 13 14 16 15 14 13 14 16 15 15 15 14 15 17 19 21 24 26 25 24 25 26 26 27 27 27 27 27 28 26 26 27 25 24 24 23 21 20 18 15 15 14 12 12 12 12 13 13 12 14 15 14 13 13 12 12 10 8 8 8 7 8 10 10 10 8 7 6 5 4 3 2 2 3 4 5 4
16 17 14 12 13 14 11 9 11 14 11 10 10 9 8 10 14 14 14 16 16 15 16 15 14 13 13 15 16 16 16 14 15 17 18 19 21 24 26 26 26 27 27 29 29 29 28 28 29 28 26 26 26 26 24 23 21 19 18 15 13 13 11 11 12 12 13 13 12 12 13 14 13 11 10 10 9 8 8 8 8 10 11 10 8 7 6 5 5 5 4 2 2 3 5 2 4
15 19 19 17 16 16 16 12 9 9 8 10 9 8 7 10 14 13 13 16 16 14 15 16 14 14 13 13 14 16 16 15 14 16 17 18 20 23 26 27 27 27 28 29 30 30 29 28 29 29 27 26 26 27 26 24 22 21 19 17 15 14 13 13 14 14 13 13 12 12 13 12 11 10 10 10 9 9 9 9 10 11 11 10 7 5 5 6 5 5 4 3 3 2 3 4 3
12 16 21 22 20 17 16 16 12 8 7 10 11 9 6 8 13 14 14 15 15 14 15 16 13 13 13 13 12 14 16 16 15 16 17 18 20 21 24 28 29 28 28 29 29 29 29 29 30 30 29 28 26 27 28 26 24 22 21 19 18 16 15 15 15 14 13 13 12 11 12 11 9 9 10 10 9 9 9 10 11 11 11 10 7 4 4 6 6 5 5 3 2 1 1 3 5
11 15 20 22 22 21 19 17 12 8 8 10 13 12 8 7 10 14 16 15 12 12 14 16 15 14 15 14 14 14 14 15 15 16 17 17 19 20 23 27 30 29 28 29 29 30 30 30 30 31 30 29 28 27 29 28 25 24 22 20 18 17 15 15 15 15 13 13 12 12 13 13 12 11 11 10 10 10 10 11 11 11 10 10 9 6 6 5 4 6 5 3 2 0 1 3 5
13 16 19 20 20 21 19 16 10 9 10 9 11 12 9 8 8 10 14 15 12 12 16 17 17 17 17 15 16 15 14 13 14 16 17 17 18 23 26 28 30 30 29 30 30 30 31 31 31 31 30 29 29 28 28 29 27 25 24 21 19 18 16 15 15 15 14 13 13 13 13 14 14 13 11 11 11 10 11 11 12 11 9 9 8 6 8 7 6 5 4 3 2 2 3 2 4
15 18 19 18 19 19 17 14 11 9 9 9 11 13 9 8 8 9 12 15 15 16 16 16 16 16 16 15 16 15 13 12 14 16 17 17 19 25 28 28 30 31 29 30 30 29 31 32 31 32 31 29 29 29 29 29 28 26 24 22 20 18 17 16 15 15 16 15 14 13 14 15 15 13 11 12 12 11 11 11 11 11 9 9 9 6 7 9 8 7 6 6 5 4 4 3 4
18 18 17 16 16 15 13 11 10 8 8 10 14 15 12 9 9 9 10 12 14 15 15 15 18 18 16 14 15 16 13 11 13 15 15 17 21 25 28 28 30 31 30 30 30 30 30 32 32 32 32 30 29 30 30 29 28 27 25 24 22 20 19 18 17 16 17 18 16 14 15 15 15 14 13 13 12 11 12 12 11 11 10 9 8 7 5 7 9 10 9 9 8 6 5 4 4
18 15 13 12 11 11 10 9 10 10 10 12 15 17 16 12 9 10 11 14 16 16 15 19 21 20 17 15 16 16 13 12 12 12 11 14 17 20 24 27 29 31 31 30 31 31 30 31 33 33 33 32 30 30 31 30 29 28 26 25 24 22 21 20 19 18 18 20 18 16 17 16 15 15 14 14 13 12 13 13 12 12 12 11 9 8 8 8 10 12 12 11 10 8 6 5 5
17 14 12 11 9 9 9 9 10 11 11 12 16 18 16 12 11 13 14 15 18 17 15 16 19 19 17 17 16 14 14 15 14 11 11 12 13 15 18 23 27 30 32 32 31 31 31 31 33 33 33 33 31 31 31 31 30 28 27 26 25 24 23 21 20 19 18 19 19 17 18 18 17 16 15 14 14 14 16 15 13 13 14 13 11 11 12 10 10 12 14 13 11 11 10 8 8
15 14 12 11 9 9 10 10 9 10 11 14 18 17 13 10 11 16 19 16 16 17 16 15 16 16 15 16 17 16 15 14 13 13 13 12 12 14 17 21 26 29 32 33 31 31 31 30 33 34 33 34 33 31 32 31 30 29 28 27 26 26 24 22 21 20 19 19 19 18 18 18 19 18 16 16 15 15 17 16 15 14 13 13 13 12 13 12 11 12 13 13 13 12 11 11 10
13 13 13 12 10 9 9 8 9 10 10 13 17 13 10 10 8 13 19 18 16 16 16 16 14 14 14 15 17 16 16 15 13 15 16 14 14 15 18 22 25 28 32 33 32 32 31 30 33 34 33 34 34 32 32 32 31 30 29 28 27 26 26 24 22 21 20 20 20 19 19 19 19 18 17 17 17 17 18 17 17 17 15 15 16 16 15 13 14 15 12 11 13 14 14 13 11
12 14 14 13 12 10 8 10 11 11 10 10 11 9 8 9 8 10 15 17 20 19 16 16 14 14 14 14 16 15 15 15 14 14 16 16 16 16 19 22 24 27 31 33 33 32 32 31 33 35 35 35 35 34 33 32 31 30 29 29 28 27 27 25 23 22 21 21 21 21 21 20 19 19 19 18 18 18 19 20 21 21 19 19 19 19 19 16 15 17 15 13 13 13 14 13 12
9 13 15 14 15 13 10 11 12 11 11 9 9 9 9 9 9 12 13 15 18 18 18 17 15 15 15 12 16 16 15 15 14 14 15 16 16 17 21 25 26 28 31 33 34 34 34 33 33 35 35 34 35 35 34 33 32 31 30 30 29 28 28 26 24 23 22 21 21 22 22 21 20 20 20 20 20 20 21 23 25 24 22 22 21 21 20 18 17 17 17 16 15 13 13 12 12
10 11 14 13 15 15 9 9 10 11 11 8 10 13 12 10 8 9 14 17 16 16 18 18 15 16 16 14 18 18 17 16 14 13 13 14 16 16 21 27 29 30 32 33 34 35 35 34 34 35 35 35 35 34 34 34 33 32 32 31 31 30 29 27 25 24 23 23 23 23 22 21 21 21 22 22 23 24 24 25 27 25 24 24 22 21 21 20 19 19 18 18 17 15 14 13 13
19 13 11 12 13 13 10 8 9 12 10 7 12 15 13 12 9 9 16 17 15 15 17 17 16 17 16 13 18 20 19 16 13 12 11 12 14 15 19 26 30 30 31 32 34 34 34 33 34 35 35 35 34 34 34 34 34 33 32 32 32 31 29 28 26 25 25 25 25 24 23 23 23 23 25 26 27 28 29 28 28 26 24 24 23 22 22 21 20 20 19 18 18 17 15 14 13
22 17 13 11 11 11 10 9 9 11 10 9 13 13 10 10 10 12 16 17 16 15 13 14 17 17 15 13 16 19 17 14 12 12 12 13 16 18 22 26 29 29 30 31 33 35 35 34 34 34 34 35 34 34 34 34 34 33 32 32 32 31 30 29 27 26 26 26 26 26 25 26 27 27 27 29 30 31 31 30 29 26 24 24 24 23 23 23 22 20 20 18 18 18 17 15 14
15 15 15 12 10 9 10 11 11 10 9 8 10 11 9 8 10 11 12 15 18 16 12 13 15 16 15 14 16 19 17 14 12 12 13 15 16 18 21 25 27 28 29 32 34 35 36 35 34 34 34 35 35 34 34 35 35 33 32 32 32 32 31 29 29 28 27 26 26 28 28 29 30 30 30 31 32 32 31 30 29 27 25 25 25 25 23 24 24 22 21 19 18 19 19 17 16
14 13 14 14 11 10 11 12 12 11 10 9 9 10 9 8 8 7 7 9 16 17 16 15 16 17 18 16 13 17 17 14 14 14 15 16 15 15 18 21 24 26 29 33 34 34 36 35 34 35 35 35 36 35 35 36 35 34 33 32 31 31 31 30 30 30 29 28 28 30 31 31 32 33 33 33 33 32 31 30 29 28 27 27 27 26 25 25 26 25 24 22 20 20 20 20 19
Wind_Direction
186 179 175 185 173 134 65 269 288 159 207 296 260 79 16 153 116 87 83 92 71 86 75 70 69 71 83 84 83 65 57 64 66 102 105 124 133 139 139 134 135 133 133 135 135 134 129 126 127 131 134 135 137 135 130 132 135 131 129 127 124 123 123 122 121 118 114 110 107 107 107 107 105 104 103 101 99 98 96 94 94 94 93 90 86 81 78 75 73 74 74 74 74 72 71 71 71
192 187 186 192 169 136 15 237 269 236 257 332 328 67 64 320 101 100 87 92 79 88 87 83 81 82 91 92 89 74 63 64 80 90 105 126 128 130 135 136 135 135 135 133 134 133 130 128 129 131 134 137 140 139 134 135 134 130 127 124 123 123 124 123 122 119 115 112 111 110 110 108 106 105 102 100 98 96 94 93 94 95 94 91 84 78 74 72 70 69 70 73 74 72 69 69 70
183 187 192 179 160 188 250 226 250 225 134 22 338 70 143 155 98 105 96 93 98 99 88 78 71 71 82 81 80 82 86 81 93 100 115 126 125 132 135 135 134 134 135 134 134 135 135 134 134 134 136 138 139 138 134 135 135 133 129 126 124 124 125 124 122 119 116 115 113 113 111 109 106 105 102 100 97 95 94 94 95 93 92 88 81 74 70 68 65 63 65 68 68 69 66 65 66
182 190 187 148 114 245 236 233 242 238 140 85 280 193 147 115 98 100 102 104 107 101 90 90 74 58 76 86 90 91 99 97 103 110 122 126 129 137 136 134 133 132 135 137 135 137 140 137 136 136 136 135 134 135 133 134 135 136 136 131 128 128 128 126 123 120 119 117 116 115 112 110 107 105 103 101 98 96 96 95 93 90 87 81 75 70 66 63 60 57 60 63 62 63 58 58 61
195 203 194 155 195 247 236 258 242 243 130 143 227 164 124 105 110 112 113 111 106 103 101 103 87 72 73 82 97 99 103 105 109 112 117 125 131 136 135 134 134 134 137 138 137 139 140 137 136 136 134 133 133 134 133 134 135 137 138 136 133 132 131 129 125 123 122 120 119 118 114 111 108 106 104 102 100 98 95 95 92 88 82 74 67 64 61 58 55 52 52 53 52 54 51 53 60
223 240 231 202 246 270 250 261 244 221 112 141 196 129 116 109 115 117 112 106 98 96 96 97 99 96 80 72 78 93 113 114 112 114 119 127 132 133 134 135 134 134 135 137 139 140 140 138 137 137 135 134 134 133 134 135 136 138 138 138 137 135 134 131 128 127 124 121 121 119 115 112 108 107 105 103 100 97 95 94 92 86 76 67 58 54 50 46 43 43 42 39 38 42 46 49 60
226 247 259 233 254 267 248 255 247 74 95 127 134 112 114 117 121 119 116 111 99 97 101 104 108 103 89 90 82 80 103 113 118 121 124 130 132 132 133 133 132 131 133 135 136 139 140 138 139 138 136 135 134 133 134 136 137 138 138 139 138 138 137 134 132 130 126 124 123 120 116 112 109 108 105 103 100 97 97 94 88 77 66 59 47 40 33 30 28 30 33 31 33 37 45 51 58
223 240 248 237 245 242 242 254 269 67 93 107 108 114 117 127 128 122 120 113 105 103 104 104 103 96 88 92 90 88 98 107 118 123 126 130 132 132 133 132 131 132 134 134 137 142 140 138 140 139 139 137 137 136 136 137 138 138 139 139 139 140 139 137 135 133 131 129 127 123 117 112 109 109 107 104 101 100 99 95 85 69 57 49 38 30 24 24 24 25 34 40 41 39 42 50 56
226 269 249 248 258 261 249 237 95 86 105 108 108 113 117 129 121 116 116 103 100 95 94 102 101 99 99 94 96 104 105 111 118 124 128 131 134 134 133 133 134 135 134 135 143 146 141 139 140 140 142 141 140 139 138 138 138 139 140 141 142 142 141 139 137 137 134 132 130 124 120 115 113 114 111 107 105 106 106 102 83 64 52 42 32 26 25 26 25 27 42 50 45 44 49 51 56
97 181 263 268 263 262 252 155 111 98 101 114 120 117 117 119 114 114 111 105 106 96 92 99 101 105 108 100 102 111 114 121 124 126 131 133 136 135 135 137 136 136 135 136 145 147 143 142 142 142 145 145 145 141 140 140 139 140 142 143 144 145 144 142 141 140 137 135 132 128 124 119 119 120 116 115 113 115 116 107 82 60 46 40 31 25 29 28 27 33 44 50 46 50 61 59 58
126 213 252 282 265 250 226 119 111 102 102 112 119 120 115 115 118 111 109 113 114 110 110 109 107 108 107 102 107 123 126 130 131 132 134 136 136 135 136 137 138 138 137 137 144 150 148 145 145 145 146 149 149 145 143 142 141 142 142 144 146 148 148 145 144 142 140 137 135 133 132 128 128 130 129 128 124 124 120 108 82 50 37 36 32 27 31 29 26 33 40 47 50 51 58 58 59
258 262 325 286 283 285 163 102 106 117 116 116 115 109 106 123 130 120 118 117 117 120 122 122 118 114 110 110 117 129 132 134 135 135 135 137 135 135 136 136 139 140 140 140 143 151 151 148 147 148 149 151 151 150 147 145 145 145 145 146 148 150 148 146 145 144 143 140 141 141 141 141 139 143 147 145 138 134 127 115 81 46 29 22 27 30 31 27 23 29 37 44 48 46 50 54 57
268 281 305 278 287 292 269 96 124 140 115 98 96 108 127 131 120 122 124 114 112 116 117 125 131 120 110 113 126 134 134 136 137 136 137 140 135 134 136 136 140 142 142 143 144 150 154 152 151 152 153 152 154 154 151 150 150 150 148 149 150 149 148 148 149 148 146 146 150 150 151 151 150 157 160 163 162 151 143 127 74 34 23 10 16 26 27 26 22 24 35 40 42 39 42 51 54
213 277 291 280 287 279 310 69 166 151 102 98 112 140 146 120 113 120 122 113 108 113 121 135 133 114 112 123 134 139 136 139 140 137 137 139 135 134 137 138 140 142 143 144 146 149 154 154 153 158 156 153 156 156 155 155 154 154 152 152 152 152 152 154 153 152 151 154 156 157 158 156 159 165 169 178 178 165 160 124 71 19 9 3 6 17 25 27 22 21 31 37 39 36 39 48 51
201 260 264 286 291 275 338 309 183 123 106 115 123 129 101 102 126 125 109 107 112 121 124 135 134 120 135 142 141 143 141 143 141 137 138 137 135 133 135 138 139 142 143 144 147 150 154 153 156 160 158 155 158 159 159 159 158 157 155 156 156 156 158 158 158 158 157 158 161 161 162 164 169 173 179 191 184 187 276 26 39 7 357 356 358 12 26 25 22 23 29 35 38 38 45 50 48
203 308 257 294 288 282 337 308 340 107 115 112 117 123 106 111 132 119 108 111 119 125 128 141 142 138 147 145 140 141 141 142 141 137 136 134 131 129 131 135 137 138 141 144 148 152 155 154 157 160 158 159 160 160 162 162 162 160 159 161 161 162 164 165 164 163 163 165 167 166 168 172 175 181 188 195 186 199 288 326 341 347 348 349 351 8 24 22 21 24 27 31 36 40 53 54 45
134 160 271 284 275 282 40 341 349 102 109 116 141 133 119 118 106 100 114 124 125 126 135 141 137 139 140 138 138 140 140 140 140 138 136 135 133 132 132 135 137 139 142 146 150 153 154 155 156 158 161 162 160 161 164 165 165 164 165 166 166 169 169 170 168 166 170 172 174 175 175 178 186 195 191 195 209 232 247 317 339 338 340 343 348 9 24 22 23 25 30 30 32 35 39 36 29
186 210 251 262 267 278 86 11 44 118 119 132 155 132 126 128 109 118 134 125 129 131 127 121 120 124 120 126 136 140 140 139 141 141 139 140 139 141 140 141 142 142 145 148 152 154 155 156 157 158 162 162 160 162 164 168 170 168 170 171 172 175 174 175 174 172 177 179 183 184 181 190 196 198 193 194 214 234 234 314 346 339 341 337 345 11 26 26 27 26 29 28 25 20 16 13 8
194 218 244 244 264 243 129 182 89 114 124 127 148 136 133 130 122 160 154 126 140 140 126 120 115 116 118 129 139 143 143 142 145 145 144 145 147 148 144 145 147 146 149 151 154 156 155 157 159 159 162 162 162 162 163 170 173 171 174 176 176 179 180 179 181 180 184 190 195 192 189 206 208 200 201 198 207 225 246 307 340 338 348 347 355 18 28 26 24 20 21 19 16 9 3 360 350
181 205 258 251 268 259 129 149 115 121 136 129 144 139 128 130 141 179 151 133 157 150 137 135 126 127 134 140 144 147 147 147 149 149 150 150 151 153 149 149 151 151 153 153 153 156 157 158 160 160 162 163 163 164 163 172 174 172 176 179 181 184 185 186 187 186 191 197 199 199 205 220 221 204 203 210 217 232 253 267 267 295 331 358 5 15 20 14 16 14 7 7 9 0 349 344 334
171 203 252 267 282 287 116 116 130 142 164 133 139 150 135 138 157 176 147 145 163 154 152 143 138 142 144 147 149 151 151 151 154 156 154 152 155 154 152 153 153 153 153 152 153 156 159 159 160 160 163 164 165 167 166 172 173 173 177 180 182 185 189 190 191 193 197 201 198 202 213 225 228 215 207 217 227 228 242 249 247 262 276 331 325 336 13 5 10 7 355 4 2 348 347 354 352
184 200 233 261 283 294 199 155 171 150 158 143 155 163 137 139 161 171 154 169 169 149 153 142 143 148 147 152 151 154 156 155 159 159 157 156 159 154 152 155 153 154 153 153 155 158 161 160 162 162 165 167 168 170 170 172 173 176 179 180 183 184 190 190 192 197 199 204 201 203 212 222 227 218 210 221 226 218 234 235 222 233 249 247 254 283 349 351 4 359 340 358 349 338 354 3 356
201 198 215 247 261 271 255 156 180 149 162 168 164 137 133 157 158 161 166 190 148 138 145 141 144 148 148 153 155 161 160 160 164 161 160 160 161 156 155 158 156 158 157 157 157 160 163 163 165 165 167 170 171 173 173 173 175 180 179 180 184 185 192 192 194 196 198 203 200 207 214 220 228 218 218 226 232 226 232 233 221 233 249 263 272 274 323 338 358 350 323 347 347 342 358 359 351
213 203 197 221 220 240 246 142 183 172 182 166 148 134 158 183 149 155 173 143 121 131 139 141 141 146 149 155 161 164 161 165 169 163 163 163 163 158 158 161 158 161 161 159 159 162 166 166 168 168 169 173 174 174 175 176 177 181 180 183 187 188 196 195 194 195 197 199 197 210 216 214 220 221 226 221 223 226 223 232 236 238 242 272 292 275 302 319 333 331 322 343 346 344 358 357 348
206 195 188 214 216 225 236 212 200 173 187 145 155 157 166 184 145 165 168 123 123 127 134 140 141 149 152 158 164 165 166 170 169 165 165 164 166 162 162 162 159 163 163 162 162 165 169 168 170 171 172 174 176 175 176 179 178 183 185 187 190 189 195 195 195 194 193 195 196 203 207 211 217 215 218 209 219 230 216 220 226 227 245 269 280 276 294 326 324 320 324 336 339 344 359 351 347
213 199 190 222 220 214 212 232 212 169 179 162 182 168 159 170 139 167 160 129 132 128 136 143 146 155 154 160 166 166 172 172 169 168 166 168 171 167 166 163 162 168 166 165 166 168 171 170 173 174 174 176 177 178 179 181 180 187 188 187 190 189 195 198 193 192 192 193 194 197 200 211 214 203 203 194 219 226 199 218 228 246 269 257 256 269 287 309 309 321 325 326 338 346 352 342 352
256 234 199 226 235 217 207 228 223 193 181 172 190 169 158 164 149 179 150 139 151 136 141 147 150 160 159 163 165 167 176 175 171 169 168 172 173 170 170 166 167 171 167 170 169 170 174 173 176 176 176 178 179 182 182 184 184 187 187 184 189 190 195 199 191 195 196 190 193 198 197 202 209 210 216 195 208 215 208 232 239 251 258 251 274 282 287 287 293 326 328 321 330 337 345 339 336
264 248 205 220 239 232 216 223 223 215 187 170 185 180 166 167 181 187 145 146 162 143 144 151 157 163 163 166 163 168 179 175 172 173 173 173 174 173 174 171 171 172 170 174 172 171 175 176 178 178 178 180 181 185 184 186 186 187 188 185 190 191 194 198 196 201 196 188 197 202 194 193 202 215 233 212 208 235 246 261 271 276 266 265 294 293 288 290 297 310 316 318 321 333 340 332 323
267 259 237 212 214 227 222 217 217 218 190 169 179 187 180 178 195 171 143 150 164 151 151 154 161 165 164 167 164 170 179 176 175 180 177 173 178 178 177 178 175 174 175 177 175 174 179 178 179 179 180 182 184 187 185 187 188 188 190 189 192 192 191 197 199 203 199 186 183 190 191 191 195 208 230 228 226 248 262 271 264 276 282 268 268 278 287 295 298 299 305 311 318 335 322 317 330
265 264 270 236 208 211 213 210 214 215 183 163 175 197 192 180 197 173 144 155 169 160 158 158 163 164 167 170 165 173 180 179 179 182 178 173 181 181 179 182 178 176 176 178 180 179 181 180 179 180 182 183 185 189 187 188 189 190 192 193 195 193 191 196 201 204 201 189 180 192 208 206 201 210 229 233 230 233 256 262 247 257 266 264 263 265 283 290 294 308 312 311 323 326 311 316 328
258 248 254 259 253 219 196 199 211 211 169 157 171 207 208 177 187 183 148 158 175 166 164 164 165 165 171 174 167 174 182 186 185 184 182 176 182 183 180 183 181 179 176 178 182 181 182 183 181 182 183 184 187 190 189 189 190 190 193 195 195 196 197 199 204 205 202 197 193 208 222 213 206 208 220 233 235 234 248 252 255 264 260 261 261 256 271 278 287 314 307 310 342 322 314 319 309
243 239 228 218 246 247 202 200 207 205 161 160 179 193 209 181 184 184 154 163 180 171 170 170 170 168 171 175 170 176 182 189 189 187 187 181 182 184 183 185 184 184 181 179 182 183 184 185 184 184 184 185 187 190 191 190 190 191 193 194 194 197 202 204 207 207 206 203 198 212 221 211 208 206 217 238 243 239 239 243 256 266 264 263 250 244 258 263 276 294 295 309 328 315 307 302 305
225 231 243 221 215 224 216 206 201 193 163 170 192 194 211 195 191 189 162 167 184 178 175 174 175 171 170 175 175 179 181 187 192 190 190 187 183 186 188 187 185 186 184 179 181 185 186 185 187 188 184 186 188 189 192 191 191 194 194 195 196 198 203 208 210 208 211 209 201 206 213 213 217 212 218 236 243 241 241 245 255 261 265 264 246 243 250 250 276 284 287 303 291 285 293 304 321
227 215 238 243 230 217 199 198 190 181 174 184 195 207 237 205 188 186 166 169 187 184 179 178 179 175 171 177 179 179 181 186 193 193 192 190 186 188 191 189 186 186 185 182 182 185 188 186 188 192 187 186 189 189 191 192 192 194 195 197 200 201 205 209 211 209 213 213 199 198 207 215 223 223 222 231 241 242 238 236 243 257 263 252 237 241 244 256 278 280 284 293 280 279 288 305 321
230 214 216 240 244 229 196 182 185 180 183 191 198 207 228 226 189 175 168 175 186 188 185 181 181 179 174 179 183 180 184 188 191 194 194 192 188 187 190 190 188 188 186 186 185 184 190 191 189 193 190 185 188 190 191 192 192 194 196 200 204 206 209 211 212 210 209 213 205 200 207 212 219 231 239 244 246 244 239 229 227 244 254 239 235 242 250 263 269 252 265 266 258 262 266 289 294
238 228 216 224 236 241 208 180 180 185 190 194 205 204 198 228 199 166 170 181 184 190 190 184 184 183 178 182 188 184 185 189 188 193 196 193 189 188 189 188 188 190 189 188 186 184 188 192 189 192 193 186 185 187 189 192 192 194 197 202 206 208 210 211 213 212 210 212 206 200 203 209 219 231 242 247 242 241 234 221 221 230 232 229 234 242 248 246 223 182 229 243 249 260 254 271 271
245 246 233 228 227 240 230 200 180 183 201 196 206 208 180 207 205 170 177 187 184 191 192 188 186 186 183 183 190 190 189 189 186 190 196 195 190 189 188 186 187 190 190 189 187 184 186 191 190 190 193 190 184 185 189 192 192 193 196 201 205 206 208 211 213 213 213 212 207 206 208 216 228 228 231 238 235 237 231 218 224 221 212 225 233 230 214 174 166 193 223 234 238 255 255 261 260
240 249 248 241 232 226 229 219 181 177 206 195 198 215 183 187 214 187 182 190 191 192 191 193 191 188 187 185 188 192 191 190 188 186 192 195 192 191 188 185 189 191 190 189 187 186 186 190 192 189 191 192 188 187 190 193 194 194 196 200 203 203 205 208 213 214 212 214 215 215 214 220 229 223 224 234 229 227 223 213 215 206 199 211 192 166 147 144 161 192 207 224 217 221 245 265 278
234 244 251 251 248 233 228 226 186 172 202 198 193 217 198 188 209 203 189 195 202 199 193 195 195 190 187 186 187 192 192 191 191 187 189 195 194 191 188 186 191 192 190 190 188 187 186 190 193 190 189 192 191 189 190 193 194 195 196 200 202 203 204 206 212 215 214 215 214 212 213 216 220 216 217 223 216 208 204 197 191 176 172 159 140 141 147 150 160 188 205 219 209 221 226 229 287
234 239 242 248 252 243 232 227 194 172 189 210 195 210 218 201 200 200 201 205 205 205 201 197 197 196 190 189 187 191 194 190 193 191 187 193 195 191 187 186 190 191 190 190 189 188 188 191 193 190 188 191 193 191 190 192 193 195 198 200 201 204 208 205 206 215 217 211 207 209 211 210 212 213 210 204 193 185 177 173 166 148 146 144 140 151 163 163 169 185 196 194 194 282 266 208 198
231 236 237 243 249 249 249 231 184 165 187 216 208 207 220 219 209 199 203 208 203 200 203 199 194 196 198 196 190 191 195 191 192 196 189 189 195 193 186 186 191 192 191 191 191 190 190 192 192 191 189 189 193 194 190 190 191 193 196 197 201 206 212 206 198 207 212 206 203 206 206 209 211 206 197 188 175 171 169 166 166 153 148 149 154 165 163 157 170 179 174 176 207 294 314 251 188
225 231 236 241 243 244 247 236 189 168 195 205 208 222 216 219 223 211 202 205 201 196 201 202 194 189 196 204 196 190 194 193 191 196 194 189 193 193 186 185 192 194 193 193 193 192 191 191 191 190 189 189 192 194 192 190 188 190 192 193 197 202 207 205 200 202 206 204 202 203 205 212 210 193 188 186 174 176 176 170 168 160 155 154 159 168 151 156 183 186 165 173 210 241 334 330 326
222 222 229 239 245 246 249 246 221 192 204 200 203 227 228 220 226 219 212 209 203 200 202 204 199 189 192 202 204 196 194 195 194 196 198 193 191 194 189 187 193 196 194 193 193 193 191 189 190 190 189 190 191 192 193 191 189 191 192 194 197 198 200 202 202 203 206 206 204 204 203 203 197 183 185 186 179 180 175 167 166 162 161 160 159 160 165 187 194 170 150 165 206 195 67 315 317
225 218 222 229 238 246 251 249 231 197 202 210 211 221 231 231 224 216 215 212 206 211 213 208 204 198 196 200 202 203 201 196 193 195 201 197 189 194 195 189 193 198 195 194 194 192 190 189 189 190 190 190 191 191 191 191 191 192 193 195 198 198 199 200 202 205 207 206 204 204 198 190 185 184 187 185 179 176 168 163 163 163 167 168 161 161 190 213 170 135 137 140 152 182 220 280 308
228 223 225 226 228 239 249 250 236 210 209 217 216 220 232 233 220 216 218 213 206 216 223 217 207 199 199 203 204 204 204 200 198 197 200 202 192 192 196 193 193 198 197 195 195 192 190 189 188 189 190 191 191 191 190 191 192 192 194 196 198 200 202 200 200 201 202 202 202 200 190 182 180 184 187 180 174 172 166 163 164 167 172 169 166 180 197 189 150 138 153 149 173 212 200 243 284
227 227 230 231 227 228 238 248 250 239 230 225 211 210 229 243 223 218 224 219 208 209 219 219 214 205 196 199 207 207 200 196 203 203 197 199 198 193 196 197 195 198 198 195 194 193 189 188 187 188 190 191 191 191 190 190 192 193 194 196 196 198 199 199 198 197 195 197 199 193 180 174 174 178 180 173 172 173 168 167 168 171 177 175 180 199 193 172 165 175 181 180 196 207 189 208 255
225 228 231 235 234 230 227 233 247 256 245 230 219 210 219 241 235 222 225 227 220 214 210 209 213 210 196 195 207 209 202 194 201 207 196 192 197 194 194 198 197 196 198 195 193 194 190 187 187 188 190 192 191 191 190 190 192 193 194 194 194 193 194 195 197 197 192 190 193 186 175 172 171 175 178 172 176 181 175 174 176 178 183 185 190 198 190 182 187 189 186 183 185 195 201 201 233
223 224 226 229 234 237 231 218 223 239 241 232 231 225 223 232 236 227 222 221 227 228 212 205 207 203 193 196 208 206 201 199 200 206 198 185 189 192 192 196 196 194 196 197 194 194 192 189 187 187 189 191 191 191 191 190 192 193 194 194 192 191 192 193 195 198 190 183 186 183 175 174 174 176 180 176 179 189 185 182 185 188 188 187 192 198 198 201 197 186 180 181 179 187 201 197 213
218 219 221 222 224 229 230 221 218 232 240 230 229 230 229 232 233 232 231 221 222 228 220 211 207 202 195 194 199 199 195 199 199 203 204 188 184 191 194 194 193 192 194 197 197 195 193 190 187 187 188 189 191 191 190 190 192 193 194 193 193 192 193 193 194 196 190 181 182 181 176 176 177 180 185 181 180 189 190 189 192 193 190 189 196 202 201 202 199 184 175 176 179 184 194 197 205
212 214 216 217 218 223 226 226 229 235 236 228 230 234 233 234 227 224 231 232 228 224 219 216 209 201 190 183 191 196 193 195 197 200 205 196 185 190 198 196 192 191 192 195 196 195 193 190 187 188 189 189 190 190 189 190 191 193 194 193 193 193 194 195 193 193 192 185 183 182 180 180 181 182 187 188 188 191 190 190 194 198 195 193 198 204 201 200 203 194 178 174 180 185 190 192 197
213 217 222 223 221 224 225 222 226 234 237 235 235 236 232 232 219 210 219 226 230 229 222 216 207 197 190 185 192 195 190 195 199 199 200 196 191 193 200 198 192 190 191 193 196 194 191 190 187 187 188 188 189 189 189 190 191 193 194 194 193 193 195 195 193 192 192 188 185 186 187 187 186 185 187 191 193 193 189 188 192 197 201 199 203 206 200 198 204 203 191 180 185 191 190 190 195
211 213 223 225 221 224 233 236 234 233 236 239 236 234 231 228 212 210 221 221 221 224 223 216 201 200 208 193 184 186 188 196 200 199 198 193 189 194 200 199 192 189 190 193 196 193 190 189 187 188 189 189 189 189 189 189 191 193 194 194 194 194 194 194 193 192 190 189 189 190 192 190 188 187 188 191 194 193 190 191 194 197 203 204 205 205 200 198 201 201 198 192 192 193 188 188 198
208 210 220 221 222 224 232 245 244 235 234 238 237 239 237 226 208 207 222 228 223 217 218 217 197 200 218 189 170 183 190 193 199 200 196 189 187 195 200 199 195 190 190 194 195 193 191 189 187 187 188 190 189 189 189 189 190 192 194 194 194 194 194 192 191 191 189 190 192 193 193 191 189 189 189 191 194 195 194 196 199 200 202 203 204 204 201 200 201 198 198 196 193 193 190 191 201
225 213 209 211 224 228 228 240 239 230 232 236 236 239 239 235 217 201 212 223 223 214 214 214 190 191 214 190 168 182 191 191 198 196 187 185 190 198 198 200 200 195 192 194 193 193 192 189 187 186 187 189 190 189 189 189 190 192 193 194 194 195 194 191 190 190 189 191 194 195 193 190 190 191 193 193 194 198 199 200 201 200 200 200 202 203 201 200 201 198 199 198 194 194 197 196 198
233 234 207 201 218 221 216 228 233 230 231 230 233 237 238 237 226 200 207 213 213 208 210 216 203 194 207 189 167 177 189 190 192 188 180 183 193 200 198 199 202 198 192 192 192 192 193 190 188 189 188 189 190 190 190 190 190 192 194 194 194 194 193 191 189 188 189 193 195 195 193 192 194 195 196 197 197 200 202 202 202 201 200 199 200 201 200 200 200 198 199 199 197 197 201 200 194
225 239 230 216 219 217 213 222 234 236 234 229 231 234 234 239 235 215 205 199 198 201 201 215 222 214 206 192 173 176 183 181 181 184 181 183 196 206 203 200 202 200 193 192 193 193 194 193 190 191 190 189 190 191 190 190 191 193 194 194 194 194 193 191 190 189 191 195 197 196 195 196 198 199 200 201 202 203 203 203 203 201 199 199 199 199 199 200 200 199 199 200 199 200 203 203 199
210 228 233 228 220 218 222 226 229 230 234 236 234 236 234 233 238 231 210 187 182 195 205 206 219 230 224 209 185 174 174 170 172 185 187 187 196 205 203 198 201 203 197 194 195 195 196 195 192 191 190 189 191 191 190 191 192 193 194 193 193 194 193 191 191 191 192 195 198 199 199 200 201 202 203 205 206 206 205 204 203 200 198 197 197 197 197 198 198 199 199 200 202 202 202 204 205
205 215 227 229 219 211 219 225 223 219 225 233 238 240 233 229 240 243 236 203 179 192 215 207 201 221 238 237 198 164 163 168 172 182 188 189 192 195 194 190 195 205 202 196 196 195 195 195 192 191 190 190 191 191 190 191 192 193 194 192 192 192 192 192 192 192 192 196 200 202 202 202 203 204 206 207 208 208 206 204 203 200 197 196 196 196 196 196 197 199 200 201 202 202 203 204 205